Location: Recife
(8.0585°S, 34.8848°W)
Time: 10:49:25
(UTC-03:00)

SR - Pass Details

Date: 19 April 2026
Orbit: 568 x 852 km, 66.7° (Epoch: 12 May)

Event Time Altitude Azimuth Distance (km) Brightness Sun altitude
Rises 11:39:01 0° 220° (SW) 2,770 ? 70.0°
Reaches altitude 10° 11:41:30 10° 233° (SW) 1,869 ? 69.8°
Maximum altitude 11:44:56 25° 289° (WNW) 1,175 ? 69.5°
Drops below altitude 10° 11:48:26 10° 345° (NNW) 1,903 ? 69.3°
Sets 11:51:01 0° 359° (N) 2,833 ? 69.0°
